SAUDICOMSAT 2

Last updated on Sat Sep 12 2026 00:03:19 GMT+0000 (Coordinated Universal Time)

1 28370U 04025E 26254.52005511 .00000174 00000+0 56782-4 0 9992 2 28370 98.6652 269.2108 0055538 359.3154 0.7955 14.50022934172615
UTC large
Height (km)
Speed (km/s)
/
Latitude / Longitude
Inclination (degrees)
Orbital Period (minutes)
Azimuth
Elevation
Range (km)
Doppler Factor

Next 0 passes for location: London (51.5072 / 0.1276)

No passes found over London.
SAUDICOMSAT 2